[[{"header":{"parameterUnit":"m.s-1","parameterCategory":1,"la1":30.2992,"la2":30.254,"lo1":-89.0895,"lo2":-89.0443,"dy":0.0025,"dx":0.0025,"nx":19,"ny":19,"refTime":"2026-03-18T03:00:00:Z","depth":0,"parameterNumber":2,"parameterNumberName":"U-component_of_WINDS"},"data":[0,0,0,1.0182,1.0182,1.0145,1.0145,1.0109,1.0109,0,0,0,0,0,0,0,0,0,0,0,1.0202,1.0202,1.0183,1.0182,1.0145,1.0145,1.0109,1.0109,0,0,0,0,0,0,0,0,0,0,0,1.0202,1.0202,1.0202,1.0182,1.0146,1.0145,1.0109,1.0133,0,0,0,0,0,0,0,0,0,0,1.0166,1.0193,1.0202,1.0202,1.0182,1.0146,1.0145,1.0134,1.0131,1.0131,0,1.0135,0,1.0122,1.0108,1.0108,0,0,0,1.0175,1.0195,1.0177,1.0202,1.0181,1.0146,1.016,1.0132,1.013,1.0128,1.0134,1.0132,1.0121,1.0107,1.0107,1.013,1.013,0,0,1.0177,1.02,1.0179,1.0176,1.0184,1.0161,1.0159,1.013,1.0138,1.0134,1.0131,1.012,1.0107,1.0107,1.0129,1.013,0,0,0,1.0187,1.0201,1.0184,1.0178,1.0171,1.016,1.0158,1.0139,1.0132,1.0131,1.012,1.0107,1.0107,1.0129,1.013,1.017,0,0,0,1.0188,1.0207,1.0185,1.0199,1.0171,1.0155,1.0168,1.0134,1.013,1.012,1.0107,1.0107,1.0128,1.0129,1.0168,1.0186,0,0,0,1.0201,1.0209,1.0206,1.02,1.0185,1.0155,1.0146,1.0132,1.0124,1.0108,1.0107,1.0128,1.0129,1.0166,1.0183,1.0196,0,0,0,1.0221,1.0245,1.0207,1.0229,1.0186,1.0181,1.0145,1.0141,1.0132,1.0107,1.0129,1.013,1.0166,1.0181,1.0194,1.021,1.022,0,0,1.0263,1.025,1.0261,1.0227,1.0235,1.0185,1.0198,1.0169,1.0147,1.0136,1.0136,1.0169,1.0182,1.0196,1.0268,1.0276,0,0,0,1.0282,1.029,1.0287,1.028,1.0258,1.024,1.0206,1.0195,1.0185,1.0147,1.0178,1.0185,1.0192,1.0198,1.0205,1.0208,1.0134,1.0134,1.0134,1.0372,1.0342,1.0357,1.0322,1.0316,1.028,1.027,1.0248,1.0221,1.0229,1.0225,1.0273,1.0281,1.0286,1.029,1.0233,1.0233,1.0233,1.0233,1.0429,1.0434,1.0396,1.0396,1.0363,1.0363,1.0328,1.0308,1.0301,1.0274,1.0278,1.025,1.0295,1.0297,1.0236,1.0236,1.0235,1.0235,1.0235,1.0483,1.048,1.0466,1.045,1.0441,1.0405,1.0399,1.037,1.0343,1.0347,1.0338,1.0337,1.0331,1.0345,1.0345,1.0345,1.0346,1.0346,1.0346,1.0544,1.0527,1.0526,1.0504,1.0494,1.0477,1.0439,1.0428,1.0407,1.0386,1.0386,1.0356,1.0306,1.0293,1.0348,1.0348,1.0347,1.0347,1.0347,1.0609,1.0589,1.0589,1.0579,1.0548,1.0539,1.0502,1.048,1.0467,1.0464,1.0433,1.0402,1.0386,1.0381,1.037,1.0441,1.0441,1.0441,1.0441,1.0653,1.0643,1.0634,1.0619,1.0601,1.0567,1.0564,1.0534,1.0499,1.0488,1.0474,1.0457,1.0453,1.044,1.0433,1.0422,1.0505,1.0505,1.0505,1.069,1.0676,1.068,1.0647,1.062,1.0597,1.0592,1.0574,1.0531,1.0507,1.0478,1.0475,1.0448,1.0441,1.0415,1.0405,1.0384,0,0]},{"header":{"parameterUnit":"m.s-1","parameterCategory":1,"la1":30.2992,"la2":30.254,"lo1":-89.0895,"lo2":-89.0443,"dy":0.0025,"dx":0.0025,"nx":19,"ny":19,"refTime":"2026-03-18T03:00:00:Z","depth":0,"parameterNumber":3,"parameterNumberName":"V-component_of_WINDS"},"data":[0,0,0,-0.7822,-0.7821,-0.7733,-0.7733,-0.762,-0.7619,0,0,0,0,0,0,0,0,0,0,0,-0.7848,-0.7847,-0.7823,-0.782,-0.7733,-0.7733,-0.762,-0.7619,0,0,0,0,0,0,0,0,0,0,0,-0.7848,-0.7847,-0.7846,-0.782,-0.7733,-0.7733,-0.7621,-0.7687,0,0,0,0,0,0,0,0,0,0,-0.7771,-0.7794,-0.7847,-0.7846,-0.7819,-0.7733,-0.7733,-0.769,-0.7683,-0.7659,0,-0.7639,0,-0.7627,-0.7612,-0.7611,0,0,0,-0.782,-0.78,-0.7778,-0.7846,-0.7819,-0.7734,-0.7773,-0.7686,-0.7677,-0.7649,-0.7637,-0.7633,-0.7625,-0.7611,-0.761,-0.7477,-0.7476,0,0,-0.7825,-0.7831,-0.7783,-0.7772,-0.7786,-0.7775,-0.777,-0.7681,-0.7667,-0.7637,-0.763,-0.7623,-0.761,-0.7609,-0.7478,-0.7477,0,0,0,-0.7839,-0.7835,-0.7814,-0.7777,-0.7761,-0.7773,-0.7767,-0.7671,-0.7664,-0.7629,-0.7622,-0.7609,-0.7608,-0.7478,-0.7477,-0.7452,0,0,0,-0.7842,-0.7843,-0.7816,-0.7819,-0.7763,-0.7715,-0.7759,-0.767,-0.766,-0.7623,-0.7609,-0.7607,-0.7479,-0.7478,-0.7454,-0.7439,0,0,0,-0.7853,-0.7844,-0.7832,-0.782,-0.7783,-0.7717,-0.7704,-0.7668,-0.7656,-0.7611,-0.7607,-0.7479,-0.7478,-0.7456,-0.7442,-0.7406,0,0,0,-0.7867,-0.781,-0.7831,-0.7764,-0.7783,-0.7702,-0.7705,-0.7644,-0.7603,-0.7609,-0.7479,-0.7477,-0.7457,-0.7444,-0.7408,-0.7376,-0.7363,0,0,-0.7798,-0.7802,-0.7762,-0.7779,-0.7695,-0.7715,-0.7628,-0.7584,-0.7574,-0.751,-0.7506,-0.7454,-0.7442,-0.7406,-0.7292,-0.7282,0,0,0,-0.7742,-0.7713,-0.769,-0.7652,-0.7617,-0.7587,-0.7556,-0.754,-0.7485,-0.7542,-0.7431,-0.7424,-0.7403,-0.7387,-0.7378,-0.7359,-0.7471,-0.7471,-0.7471,-0.7651,-0.7643,-0.7576,-0.7557,-0.752,-0.749,-0.7459,-0.7432,-0.7433,-0.7407,-0.7387,-0.7319,-0.7301,-0.7295,-0.7275,-0.737,-0.737,-0.737,-0.737,-0.7548,-0.7506,-0.7511,-0.7448,-0.744,-0.7387,-0.7356,-0.7359,-0.7308,-0.7333,-0.7313,-0.734,-0.7284,-0.7267,-0.7368,-0.7369,-0.7369,-0.7369,-0.7369,-0.7487,-0.7465,-0.7448,-0.7393,-0.7351,-0.7334,-0.7286,-0.7279,-0.7273,-0.7254,-0.7233,-0.7233,-0.7232,-0.7245,-0.7245,-0.7244,-0.7244,-0.7244,-0.7244,-0.743,-0.7411,-0.7371,-0.7332,-0.7307,-0.7274,-0.7244,-0.7219,-0.719,-0.7189,-0.7189,-0.7193,-0.7281,-0.7302,-0.724,-0.7241,-0.7241,-0.7242,-0.7242,-0.7327,-0.735,-0.7288,-0.7264,-0.7217,-0.7177,-0.717,-0.7121,-0.71,-0.7076,-0.7085,-0.7151,-0.7154,-0.716,-0.7178,-0.7087,-0.7087,-0.7087,-0.7087,-0.7274,-0.7276,-0.7213,-0.7174,-0.7135,-0.7124,-0.7055,-0.7032,-0.7011,-0.6998,-0.7011,-0.7034,-0.7042,-0.704,-0.7049,-0.7066,-0.6948,-0.6948,-0.6948,-0.721,-0.7208,-0.7151,-0.7132,-0.7096,-0.7065,-0.7,-0.6956,-0.6937,-0.6942,-0.6987,-0.6993,-0.7031,-0.7044,-0.7048,-0.7063,-0.7093,0,0]}]]